Regional Weather Roundup
Issued by NWS

Home | Current Version | Previous Version | Text Only | Print | Product List | Glossary Off
Versions: 1 2 3 4 5 6 7 8 9 10 11 12 13 14 15 16 17 18 19 20 21 22 23 24 25 26 27 28 29 30 31 32 33 34 35 36 37 38 39 40 41 42 43 44 45 46 47 48 49 50

000
ASUS44 KMEG 291900
RWRTN
TENNESSEE HOURLY STATE WEATHER ROUNDUP
NATIONAL WEATHER SERVICE MEMPHIS TN
200 PM CDT FRI AUG 29 2014

TNZ002-004-019-021-049-052-054-088>092-292000-
WEST TENNESSEE

CITY           SKY/WX    TMP DP  RH WIND       PRES   REMARKS
MEMPHIS INTL   PTSUNNY   91  68  46 SW7       29.96F HX  95
NWS MEMPHIS      N/A     93 N/A N/A MISG        N/A
JACKSON        MOSUNNY   89  68  49 SE3       29.98F HX  93
DYERSBURG      MOSUNNY   90  64  43 SE7       29.97F HX  91
UNION CITY     SUNNY     90  68  48 SW10      29.96F HX  93
PARIS          SUNNY     88  64  45 S9        30.00S
SAVANNAH       SUNNY     90  66  45 S8        30.02S HX  92
$$

TNZ008-025-027-028-033-062-065-066-292000-
NORTH MIDDLE TENNESSEE

CITY           SKY/WX    TMP DP  RH WIND       PRES   REMARKS
NASHVILLE      PTSUNNY   93  55  27 S16G22    30.02F HX  91
CLARKSVILLE    MOSUNNY   89  65  44 S10       29.99F HX  91
COOKEVILLE     SUNNY     91  66  43 CALM      30.07F HX  94
CROSSVILLE     SUNNY     86  55  34 S8        30.12F
$$

TNZ061-075-076-078-094-096-097-292000-
SOUTH MIDDLE TENNESSEE

CITY           SKY/WX    TMP DP  RH WIND       PRES   REMARKS
TULLAHOMA      MOSUNNY   88  59  37 S9        30.07F
WINCHESTER     MOSUNNY   90  61  37 S8        30.07S
SHELBYVILLE    MOSUNNY   91  64  40 SW8       30.05F HX  93
$$

TNZ017-018-042-046-047-292000-
NORTHEAST TENNESSEE

CITY           SKY/WX    TMP DP  RH WIND       PRES   REMARKS
TRI CITIES     MOSUNNY   89  65  44 CALM      30.10F HX  91
ELIZABETHTON   CLEAR     90  66  45 W10       30.10F HX  92
$$

TNZ012-013-036-069-073-074-292000-
CENTRAL EAST TENNESSEE

CITY           SKY/WX    TMP DP  RH WIND       PRES   REMARKS
KNOXVILLE      MOSUNNY   89  66  46 W8        30.05  HX  91
OAK RIDGE      MOSUNNY   91  65  41 CALM      30.08F HX  93
GATLINBURG     PTCLDY    90  64  43 VRB3      30.05F HX  91
$$

TNZ083-085-099-292000-
SOUTHEAST TENNESSEE

CITY           SKY/WX    TMP DP  RH WIND       PRES   REMARKS
CHATTANOOGA    MOSUNNY   92  52  25 SE9       30.05F
$$

SKY/WX REPORTED AS FAIR MEANS FEW OR NO CLOUDS BELOW
12 THOUSAND FEET.




USA.gov is the U.S. government's official web portal to all federal, state and local government web resources and services.